STARLINK-5124, 54011

Orbit data source: Space-Track

STARLINK-5124, 54011 is a payload satellite owned by SpaceX/Seattle (US) in LEO that was launched on Wed, 05 Oct 2022 UTC via an FALCON 9 launch vehicle from the Air Force Western Test Range (AFWTR). Payload-class satellites include a variety of spacecraft equipped with specific instruments for various scientific and technological missions. These include communications satellites like Starlink; space stations such as the ISS; scientific satellites like the Hubble; Earth observation satellites from companies like Planet Labs, Umbra, and HawkEye 360; GPS; miniature CubeSats for education and research; and military/defense satellites.

Loading next visibility...
Identifier
54011, 2022-125AZ
Orbit
LEO
Country
Flag of USUS
Related business
Manufacturer
SpaceX/Seattle
Mission
Operational Commercial Communications
Bus & Motor
STARLINK, Unknown motor
Mass
305 kg wet, ~290 kg dry
Launch date (UTC)
2022-10-05 (4 years ago)
Launch vehicle
FALCON 9
Launch site
Air Force Western Test Range (AFWTR)
Object type
Payload
Rocket body
Debris
Shape & HBR
Box + 1 Pan, 10.1 m
Radar Cross Section
13.562 m², Large (>1 m²)

Expand to show TLE details & history
Last TLE update: 3 days ago

TLE from 3 days ago
0 STARLINK-5124
1 54011U 22125AZ  26170.85091814 -.00000038  00000-0  15728-4 0  9994
2 54011  53.1601 105.5393 0001256  89.0409 271.0726 15.08830177205023
Epoch: 2026-06-19T20:25Z
TLE epoch observation values (Epoch: 2026-06-19T20:25:19.327Z)
Latitude
-0.00004°
Longitude
-108.86523°
Altitude
540.649 km
Speed
7.593 km/s
True Right ascension
07h 02m 09s
True Declination
0° 00' 00"
Sunlit
Object was in daylight at epoch
Visualization orbit readout
Latitude
Unknown
Longitude
Unknown
Altitude
Unknown
Speed
Unknown
Apparent Right ascension
Unknown
Apparent Declination
Unknown
Sunlit
N/A
Visualization observer readout
Local Sidereal Time
21:32:21
Azimuth
Unknown
Elevation
Unknown
Doppler factor
Unknown
Orbital elements
Apogee altitude
540.896 km
Perigee altitude
539.159 km
Semi-major axis
6,918.165 km
Eccentricity
0.00013
Inclination
53.1601°
RAAN
105.5393°
Arg. of periapsis
89.0409°
True anomaly
271.05821°
Mean anomaly
271.0726°
Eccentric anomaly
271.0654°
Mean motion
3.77187 °/min
Orbital period
95.44 mins
BSTAR
0.000015728
Loading maneuver chart data...
Computing Atmospheric mass density...
Loading historical data...
Loading historical data...
Loading historical data...
Loading historical data...
Loading historical data...
Loading historical data...
Loading historical data...

Documentation

Showing up to 5 results
|